Temperature
21 21 20 22 26 29 29 29 30 29 29 28 27 28 28 28 28 26 22 22 21 20 19 20 20 20 20 20 20 19 19 19 19 19 19 19 19 19 18 18 18 18 18 18 18 18 18 18 18
21 20 21 25 29 29 29 30 30 30 29 27 27 27 27 27 25 22 21 21 20 20 19 19 20 20 20 20 20 20 19 19 19 19 19 19 19 18 18 18 18 18 18 18 18 18 18 18 18
21 21 24 29 29 29 30 30 30 29 28 27 27 27 27 26 23 22 21 20 20 20 19 19 20 20 20 20 20 20 19 19 19 19 19 18 18 18 18 18 18 18 18 18 18 18 18 18 18
21 23 26 29 30 30 30 31 30 30 28 27 28 27 25 22 22 21 20 20 20 19 19 19 20 20 20 20 20 19 19 19 19 19 19 18 18 18 18 18 18 18 18 18 18 18 18 18 18
23 27 29 30 30 30 31 30 30 30 29 28 28 28 25 21 21 21 20 20 20 20 19 19 20 20 20 20 20 19 19 19 19 18 18 18 18 18 18 18 18 18 18 18 18 18 18 17 17
26 28 30 30 30 30 31 30 30 30 29 28 28 28 25 21 21 20 20 20 20 20 19 19 20 20 20 19 19 19 19 19 19 18 18 18 18 18 18 18 18 18 18 18 18 18 17 17 17
27 29 30 30 30 30 31 30 30 30 30 28 28 28 24 21 20 20 20 20 20 20 19 19 19 19 19 19 19 19 19 19 19 19 18 18 18 18 18 18 18 18 18 18 18 17 17 17 17
26 29 30 30 30 30 31 30 30 30 29 27 27 28 26 21 20 20 20 20 20 20 19 19 18 18 19 19 19 19 19 19 19 19 18 18 18 18 18 18 18 18 18 18 17 17 17 17 17
25 29 30 31 30 31 31 30 29 28 28 27 26 26 24 21 20 19 19 19 19 19 19 19 18 18 18 18 18 18 18 18 18 18 18 18 17 17 17 17 17 18 18 18 17 17 17 17 17
27 29 30 31 31 31 30 30 30 29 29 28 26 24 22 21 20 19 19 19 19 19 19 19 18 18 18 18 18 18 18 18 17 17 18 17 17 17 17 17 17 17 17 17 17 17 17 17 17
28 29 30 30 30 30 30 30 30 30 30 29 27 24 21 20 20 20 20 19 19 19 18 18 18 18 18 18 18 18 17 18 17 17 17 17 17 17 17 17 17 17 17 17 17 17 17 17 17
28 29 29 29 30 30 30 30 30 30 29 28 27 25 22 21 20 20 20 19 19 18 18 18 18 18 18 18 18 17 17 17 17 17 17 17 17 17 17 17 17 17 17 17 17 17 16 17 17
28 29 29 29 30 30 29 30 29 29 28 26 25 24 22 21 20 20 20 19 19 18 18 18 18 18 18 18 18 17 17 17 17 17 17 17 17 17 17 17 17 17 16 17 17 16 16 16 17
29 29 30 30 30 29 30 30 29 29 27 26 25 23 22 21 21 20 19 18 18 18 18 18 18 18 18 18 18 18 17 17 17 17 17 17 17 17 17 17 17 16 16 16 16 16 16 16 16
28 29 30 31 30 30 30 30 30 28 26 26 25 23 22 21 20 20 19 18 18 18 18 18 18 18 18 18 18 18 17 17 17 17 17 17 17 17 17 17 17 16 16 16 16 16 16 16 16
29 30 30 31 31 30 30 30 30 27 26 26 25 23 22 21 20 19 19 18 18 18 17 17 17 18 18 18 18 17 17 17 17 17 17 17 17 17 17 17 16 16 16 16 16 16 16 16 16
29 30 30 30 30 30 30 30 29 27 27 26 25 24 22 21 20 19 18 18 18 18 17 17 17 17 17 17 17 17 17 17 17 17 17 17 17 17 17 17 16 16 16 16 16 16 16 16 16
29 30 30 30 30 30 30 30 29 27 26 26 25 24 22 21 20 19 18 18 18 17 17 17 17 17 17 17 17 17 17 17 17 17 17 17 17 17 16 16 16 16 16 16 16 16 16 16 16
29 29 29 30 30 29 30 29 29 27 27 26 25 24 22 21 20 19 18 18 18 17 17 17 17 17 17 17 17 17 17 17 17 17 17 17 17 16 16 16 16 16 16 16 16 16 16 16 16
28 28 29 30 30 29 29 29 29 28 27 26 25 24 23 21 20 19 18 17 17 17 17 17 17 17 17 17 17 17 17 17 17 17 17 17 16 16 16 16 16 16 16 16 16 16 16 16 16
28 28 29 29 29 29 29 29 29 28 26 25 24 24 23 22 21 19 18 17 17 17 17 17 17 17 17 17 17 17 17 17 17 17 17 16 16 16 16 16 16 16 16 16 16 15 15 16 16
28 29 29 28 29 29 29 28 29 28 27 26 25 24 23 22 21 20 18 18 17 17 17 17 17 17 17 17 17 17 17 17 17 17 17 16 16 16 16 16 16 16 16 16 16 15 15 15 16
29 29 28 28 28 29 29 28 29 28 28 27 26 24 23 22 21 20 19 18 17 17 17 17 17 17 17 17 17 17 17 17 17 17 17 16 16 16 16 16 16 16 16 15 15 15 15 16 16
29 28 28 28 29 28 28 28 29 30 28 28 26 25 23 22 21 20 19 18 17 17 17 17 17 17 17 17 17 17 17 17 17 17 16 16 16 16 16 16 16 16 15 15 15 15 15 15 15
28 28 27 27 27 28 28 28 28 29 28 27 26 25 23 22 21 20 19 18 18 17 17 17 17 17 17 17 17 17 17 17 17 17 17 17 16 16 16 16 16 16 15 15 15 15 15 15 15
28 28 27 27 27 28 28 28 29 28 27 26 25 24 23 22 21 20 19 18 18 17 17 17 17 17 17 17 17 17 17 17 17 17 17 17 17 16 16 16 16 16 15 15 15 15 15 15 15
28 28 30 28 28 27 28 29 29 28 27 26 25 24 23 22 21 20 19 19 18 17 17 17 17 17 17 17 17 17 17 17 17 17 17 17 16 16 16 16 16 16 15 15 15 15 15 15 15
29 29 28 28 26 26 28 28 29 28 27 26 26 25 23 22 21 20 19 19 18 18 17 17 17 17 17 17 17 17 17 17 17 17 17 16 16 16 16 16 16 16 16 15 15 15 15 15 15
28 28 28 28 28 27 27 28 29 28 27 27 26 24 23 22 21 20 20 19 18 18 17 17 17 17 17 17 17 17 17 17 17 17 17 17 16 16 16 16 16 16 16 15 15 15 15 15 15
28 28 28 27 27 27 27 28 28 28 27 26 25 23 22 22 21 20 20 19 18 18 18 17 17 17 17 17 17 17 17 17 17 17 17 17 16 16 16 16 16 16 15 15 15 15 15 15 15
Wind_Speed
10 7 5 4 5 3 3 4 2 2 2 2 2 1 1 1 2 3 6 18 20 21 22 22 19 19 18 17 17 17 17 17 17 16 15 15 14 13 12 12 12 13 13 13 13 14 14 13 13
6 4 5 5 4 2 5 2 1 2 3 3 2 1 1 1 4 6 10 18 21 21 22 21 21 19 19 18 17 17 17 17 16 16 15 14 14 13 13 13 13 13 13 13 13 13 13 13 12
5 6 5 4 2 1 4 3 2 2 3 3 2 1 1 3 4 6 11 21 21 20 21 21 22 20 19 18 18 17 17 17 16 15 15 14 14 13 13 13 13 13 13 13 13 13 12 12 11
5 5 5 6 2 1 1 1 0 3 4 3 2 2 3 4 3 7 17 21 21 20 21 23 22 20 19 18 18 17 17 16 16 15 14 14 14 13 13 13 13 13 13 12 12 12 11 10 10
6 5 7 5 2 1 2 3 3 3 3 3 3 1 3 4 5 13 20 21 21 20 20 23 21 20 19 18 18 17 16 16 15 15 14 13 13 13 13 13 13 13 12 12 11 10 9 9 8
5 5 6 3 3 1 1 1 4 4 3 3 4 2 3 5 10 16 20 20 20 19 19 22 21 20 19 18 18 17 16 15 15 14 14 13 13 12 12 12 12 12 12 11 10 9 8 7 7
7 6 5 2 2 2 1 0 3 3 4 4 3 2 5 8 12 16 18 18 18 18 18 20 21 20 19 18 17 17 16 15 15 14 14 13 13 12 12 12 12 11 10 9 8 7 7 6 7
6 5 5 4 3 2 2 0 1 4 3 2 4 4 4 11 14 16 17 17 17 17 17 17 19 19 18 18 17 16 16 15 14 14 13 13 13 12 11 12 11 10 9 8 7 7 7 7 7
5 7 5 3 1 1 1 2 1 2 3 4 4 1 7 17 18 18 17 16 16 16 16 16 17 16 17 17 17 17 15 14 14 13 13 12 12 12 11 11 11 9 9 8 7 6 6 5 8
6 8 2 1 3 4 3 5 3 5 7 7 6 5 12 18 19 20 19 20 19 18 17 15 15 15 15 15 16 14 14 14 12 11 12 9 8 8 9 12 9 9 8 8 7 5 5 5 5
7 7 3 4 5 7 7 6 5 8 7 7 8 10 15 18 18 19 19 19 19 18 17 15 14 14 14 11 13 11 11 12 10 11 10 8 8 8 8 8 9 8 8 6 7 5 3 2 2
7 8 8 8 7 8 8 7 6 9 6 2 3 10 17 18 19 19 19 18 18 18 17 15 14 13 12 12 11 10 10 10 10 11 10 9 6 6 6 5 6 5 4 4 4 3 2 1 2
11 8 8 9 10 9 9 8 7 7 5 1 4 11 16 17 17 17 16 16 17 17 17 15 14 13 12 10 10 10 10 10 10 10 9 8 7 5 5 4 4 4 4 5 3 3 3 2 3
6 9 11 10 8 6 7 7 7 5 4 4 6 10 13 15 16 15 15 16 17 17 16 15 15 14 12 11 9 9 10 9 10 10 10 8 7 6 5 5 4 4 3 3 3 3 3 2 2
8 10 10 7 5 3 6 9 7 4 4 6 7 9 11 12 14 15 15 15 15 16 16 16 16 14 13 12 11 9 10 11 9 9 9 8 7 6 5 5 4 4 3 4 3 3 3 3 3
9 10 9 4 3 3 7 7 2 3 6 6 7 8 10 11 13 13 13 13 13 14 14 15 14 15 14 11 10 9 9 10 9 9 9 9 7 7 6 4 4 4 4 4 3 4 4 3 3
11 10 8 4 3 3 7 7 0 2 6 7 7 8 9 11 12 12 12 13 13 13 14 15 14 15 14 12 10 9 8 8 9 9 9 9 8 8 6 4 3 5 4 4 4 4 3 3 3
7 7 7 6 2 5 8 7 3 3 6 7 7 8 9 10 11 11 12 12 12 12 13 14 15 14 13 11 9 8 8 8 8 8 8 9 8 8 6 5 5 5 4 4 3 3 2 2 3
7 9 9 6 4 6 8 8 5 4 7 8 8 8 9 10 9 10 11 11 12 12 13 14 15 14 13 11 11 10 10 9 8 8 9 9 8 8 6 5 5 5 5 4 5 4 5 4 3
11 11 10 6 2 6 8 9 5 5 6 7 7 8 9 9 9 10 11 11 12 13 13 15 17 16 15 12 11 10 10 8 8 7 8 9 9 8 7 6 6 5 4 5 5 4 4 3 4
12 11 9 8 7 6 8 9 5 4 5 6 7 8 8 9 10 11 12 12 12 13 14 14 17 17 16 14 11 10 9 8 7 8 8 8 9 9 7 7 6 5 6 5 6 6 6 4 4
12 8 8 9 10 7 4 9 3 4 5 7 7 8 8 8 9 10 11 12 12 13 13 14 15 16 16 15 13 15 12 10 9 8 8 8 9 9 9 8 7 6 5 4 6 6 5 5 5
10 5 8 9 10 11 8 9 4 3 4 5 6 7 8 8 8 9 10 11 12 12 12 12 14 15 15 15 15 14 12 9 8 8 9 9 8 9 9 8 7 6 5 5 4 5 6 5 5
8 7 8 9 10 11 7 8 6 2 2 2 4 6 7 7 8 8 10 11 11 12 12 12 14 14 15 15 15 14 13 12 11 10 10 9 8 8 9 9 8 7 6 6 6 6 7 5 4
11 11 9 9 9 8 2 6 5 3 1 1 3 5 7 7 8 9 10 11 12 13 13 13 14 13 14 15 14 13 13 12 12 11 11 9 8 8 9 9 8 7 7 6 6 6 6 6 5
12 13 11 9 8 7 4 6 3 1 1 2 4 6 7 8 8 9 10 11 12 13 13 13 15 14 15 14 14 12 12 10 10 11 10 10 8 8 9 10 10 9 8 8 7 7 6 5 6
11 12 12 12 12 10 7 5 3 2 3 5 6 7 7 8 8 9 10 11 12 13 13 14 14 14 14 14 13 12 12 12 11 11 10 9 8 8 10 10 10 9 9 9 8 7 7 6 7
10 9 8 11 10 11 9 7 4 2 3 6 7 8 8 8 9 9 10 11 11 12 12 13 13 13 14 14 13 11 12 12 11 11 11 10 10 9 10 11 10 10 10 10 9 8 8 8 7
9 10 10 10 10 11 11 5 2 1 2 5 7 8 8 9 9 9 9 10 11 11 12 13 13 13 13 13 12 12 12 12 12 11 12 11 10 10 11 11 11 10 11 10 10 10 9 10 9
10 12 12 11 11 11 12 8 3 1 2 4 6 7 8 8 8 9 10 11 11 12 11 12 12 12 12 12 12 12 12 12 12 12 12 11 11 11 11 11 11 11 11 11 11 11 11 11 11
Wind_Direction
194 206 235 248 244 218 85 83 67 85 79 79 122 173 327 4 346 56 120 153 150 150 147 153 154 151 147 143 140 138 136 136 135 135 134 133 131 127 123 118 113 111 109 106 105 104 102 101 102
196 214 238 246 258 143 102 85 102 60 74 120 151 201 290 71 55 101 141 151 152 150 150 155 153 152 149 145 143 141 140 138 137 136 135 133 130 127 122 117 113 110 108 107 106 104 103 102 102
205 234 260 252 247 55 84 85 74 111 151 172 163 185 354 53 107 134 148 153 153 150 150 149 154 153 150 147 145 144 142 140 139 139 136 132 129 125 121 117 113 111 109 108 106 104 104 104 104
216 228 240 248 213 83 351 36 127 176 170 194 190 134 103 59 108 142 150 156 153 152 153 149 156 153 151 149 147 145 144 141 139 139 135 131 128 124 122 119 116 112 109 107 106 105 104 103 104
239 251 239 223 187 143 261 294 247 217 186 187 207 143 109 87 117 142 153 157 156 156 153 151 157 154 153 152 150 147 146 143 139 137 133 129 125 121 120 118 114 112 110 108 106 104 101 100 104
231 243 240 203 131 139 239 260 228 228 203 191 211 212 104 118 140 149 156 160 159 157 154 150 156 155 154 154 152 149 148 144 140 136 133 129 127 123 121 118 115 112 110 108 105 102 98 94 98
256 251 246 215 145 147 57 293 230 232 222 208 212 206 128 142 147 154 158 162 161 159 153 154 159 158 157 155 153 151 149 145 142 138 134 130 128 126 122 120 119 115 112 108 105 101 93 91 99
265 256 223 199 201 117 75 263 249 246 231 187 209 228 152 152 153 155 158 164 164 163 159 159 162 160 161 159 156 154 151 147 144 141 139 136 132 131 131 134 121 119 116 112 107 100 92 91 102
248 244 216 183 223 58 25 283 221 233 198 186 206 289 116 145 154 157 162 167 170 170 166 166 161 162 164 160 155 157 153 149 150 149 147 156 153 143 150 122 123 123 120 117 109 103 102 117 122
231 242 214 343 306 312 308 283 252 222 214 207 190 143 137 151 161 167 171 173 175 175 173 170 165 163 165 160 158 163 161 157 166 156 159 161 140 140 130 124 130 127 127 128 118 119 154 202 141
229 251 289 286 290 301 288 272 245 248 246 234 211 174 161 164 170 177 180 180 178 177 176 172 167 166 168 161 163 165 159 158 163 159 162 150 150 148 145 149 148 148 155 152 141 174 178 143 95
239 255 270 278 292 288 286 276 253 251 267 308 216 172 169 176 180 184 185 183 180 180 179 176 169 170 172 165 163 164 162 164 164 160 167 158 159 156 152 159 155 162 156 145 159 164 147 135 140
236 261 272 275 276 281 276 263 262 260 252 237 168 169 179 184 187 188 187 184 181 183 180 176 171 172 174 168 170 169 167 168 162 160 167 166 165 163 154 156 161 170 156 163 174 174 156 180 179
251 266 273 275 277 262 260 258 244 249 234 204 179 180 186 189 187 185 186 189 186 184 179 174 172 175 174 172 174 170 169 165 163 166 166 173 169 161 164 169 172 171 172 161 179 164 173 180 163
264 266 256 242 248 244 262 245 226 232 215 206 194 188 188 190 187 188 188 190 187 184 180 177 174 176 177 176 177 175 171 167 169 165 165 173 171 166 175 171 177 168 163 163 180 172 173 172 170
243 245 239 197 234 228 256 268 157 204 212 208 198 192 191 188 191 190 187 190 187 181 179 178 178 177 178 177 178 175 175 168 167 165 169 175 172 176 185 180 179 167 180 178 176 192 183 177 177
225 235 245 225 205 257 259 282 137 213 215 210 202 197 194 189 193 192 190 190 188 186 180 178 180 178 178 175 175 174 169 167 167 169 174 173 176 181 191 189 169 183 186 188 200 173 199 180 180
228 245 249 260 266 279 271 281 261 219 223 219 207 200 196 198 198 193 191 189 186 186 182 179 182 178 178 174 172 168 168 170 174 175 174 172 178 183 189 185 184 198 191 188 187 165 188 192 197
268 268 268 277 305 288 282 287 272 225 227 224 215 206 202 205 196 188 188 189 185 185 183 181 182 180 178 176 176 174 175 174 174 176 174 179 182 181 189 189 184 203 196 194 187 188 181 193 188
251 257 261 263 288 290 293 286 264 230 228 227 220 211 208 203 194 190 188 187 188 187 186 185 185 183 182 181 178 177 173 174 173 175 173 183 186 185 186 191 193 195 191 194 197 208 214 188 197
243 250 266 286 296 252 283 268 216 206 213 216 219 217 212 206 201 196 194 192 190 189 188 188 185 182 183 178 171 167 163 167 171 175 178 184 186 190 190 192 202 195 208 195 201 203 214 206 195
242 246 265 276 280 279 286 292 256 200 214 212 211 210 209 205 203 197 192 190 190 191 190 187 182 182 181 177 177 175 177 177 180 180 178 180 186 189 191 194 198 202 208 194 205 200 209 216 205
247 259 261 269 273 278 259 279 285 196 245 219 205 207 206 201 197 194 190 189 189 186 184 182 178 180 179 181 183 182 182 179 174 176 176 184 185 193 195 195 195 198 204 202 211 193 217 217 228
233 235 244 250 256 259 271 281 289 289 285 213 184 191 196 194 191 188 185 183 184 182 181 178 178 180 179 181 184 186 182 175 174 179 179 187 188 193 196 197 198 201 199 196 204 207 210 229 235
218 233 240 239 238 255 240 271 289 351 344 218 181 176 180 183 183 180 179 179 180 179 179 179 178 180 179 180 183 186 184 179 180 184 187 191 194 197 194 199 200 202 201 202 206 210 219 216 218
218 234 247 261 266 272 216 263 297 63 110 161 165 162 169 175 176 177 177 179 179 179 179 179 181 181 179 181 184 187 185 186 188 193 193 196 202 203 193 200 202 205 205 206 205 215 213 214 220
223 232 252 263 270 274 269 265 254 188 176 168 167 165 164 169 172 174 175 177 176 178 180 178 179 179 181 184 184 186 190 194 194 193 200 202 205 202 197 202 204 205 207 210 210 219 218 215 222
247 247 238 250 260 266 268 264 274 223 193 169 171 170 162 163 168 172 174 174 173 175 176 177 180 180 182 184 187 190 194 198 197 197 202 206 203 203 200 204 206 208 209 210 215 217 216 219 224
210 225 238 250 259 267 275 277 42 321 207 184 175 173 169 164 165 167 171 170 168 169 171 177 179 182 186 188 190 190 194 197 197 201 206 207 203 202 204 206 207 210 213 213 215 222 214 220 222
245 243 237 245 251 253 271 278 81 68 176 177 169 164 165 162 163 165 166 166 169 171 172 175 175 179 184 184 185 189 192 195 198 202 206 206 204 204 206 208 211 214 216 215 218 223 220 222 225
Height
1512 1513 1513 1514 1507 1498 1497 1494 1492 1493 1494 1498 1499 1499 1499 1500 1503 1511 1512 1513 1516 1520 1522 1525 1529 1532 1535 1537 1539 1541 1543 1544 1546 1547 1548 1550 1551 1552 1553 1554 1555 1556 1557 1557 1558 1558 1559 1560 1561
1515 1514 1515 1512 1500 1501 1500 1493 1493 1493 1496 1500 1501 1501 1501 1502 1507 1509 1510 1513 1517 1521 1523 1526 1530 1533 1536 1538 1540 1542 1544 1546 1547 1549 1550 1551 1553 1554 1555 1556 1557 1558 1559 1559 1560 1560 1561 1562 1563
1515 1515 1514 1503 1497 1498 1497 1492 1492 1495 1498 1500 1500 1502 1503 1505 1508 1510 1511 1513 1518 1522 1525 1527 1531 1534 1537 1539 1541 1543 1545 1547 1549 1550 1552 1553 1554 1556 1557 1558 1559 1560 1560 1561 1562 1563 1564 1565 1565
1516 1516 1511 1500 1496 1493 1492 1490 1492 1494 1497 1499 1500 1501 1505 1508 1509 1510 1510 1514 1519 1522 1526 1528 1532 1535 1538 1540 1543 1545 1547 1549 1550 1552 1553 1555 1556 1557 1558 1559 1560 1561 1562 1563 1564 1565 1566 1567 1568
1516 1511 1501 1495 1493 1491 1491 1491 1492 1492 1495 1498 1500 1500 1505 1508 1508 1509 1511 1515 1520 1524 1527 1529 1532 1536 1539 1541 1544 1546 1548 1550 1552 1553 1555 1556 1558 1559 1560 1561 1562 1563 1564 1565 1566 1567 1568 1569 1570
1513 1505 1498 1494 1492 1491 1490 1491 1492 1492 1495 1498 1500 1500 1505 1508 1508 1510 1513 1517 1521 1525 1528 1529 1533 1536 1539 1542 1545 1547 1549 1551 1553 1555 1556 1558 1559 1560 1562 1563 1564 1565 1566 1567 1568 1570 1570 1571 1572
1510 1500 1494 1492 1493 1491 1490 1491 1491 1491 1494 1497 1499 1500 1505 1508 1509 1511 1515 1519 1523 1526 1529 1530 1533 1537 1540 1543 1545 1548 1550 1552 1554 1556 1558 1559 1560 1562 1563 1564 1565 1567 1568 1569 1570 1571 1572 1573 1574
1509 1501 1493 1491 1492 1490 1490 1491 1492 1492 1494 1498 1500 1499 1502 1507 1509 1512 1516 1519 1523 1526 1529 1531 1534 1537 1540 1543 1546 1548 1551 1553 1555 1557 1558 1560 1562 1563 1564 1566 1567 1568 1569 1571 1572 1573 1574 1574 1575
1510 1501 1492 1489 1490 1488 1489 1490 1492 1494 1495 1497 1499 1500 1502 1504 1507 1511 1515 1519 1522 1526 1529 1532 1534 1537 1541 1544 1546 1549 1551 1553 1556 1558 1559 1561 1564 1565 1566 1567 1568 1569 1570 1572 1573 1574 1575 1576 1576
1506 1496 1489 1490 1489 1488 1489 1490 1490 1492 1492 1495 1498 1501 1502 1503 1506 1509 1512 1516 1519 1523 1527 1530 1533 1536 1540 1544 1546 1549 1552 1554 1557 1559 1560 1563 1564 1566 1568 1567 1569 1570 1571 1572 1573 1575 1576 1577 1579
1501 1494 1490 1491 1490 1490 1489 1488 1489 1489 1487 1490 1494 1499 1501 1502 1505 1508 1511 1514 1517 1521 1525 1529 1532 1535 1539 1542 1545 1549 1552 1554 1556 1559 1561 1563 1564 1566 1568 1569 1570 1570 1572 1573 1574 1576 1578 1579 1579
1499 1494 1494 1492 1490 1489 1488 1487 1487 1487 1488 1490 1493 1496 1499 1501 1503 1506 1509 1512 1516 1519 1523 1527 1530 1533 1538 1541 1545 1548 1551 1553 1556 1558 1560 1563 1564 1566 1568 1569 1570 1571 1572 1573 1575 1576 1577 1578 1578
1496 1493 1491 1490 1489 1487 1487 1485 1486 1486 1488 1490 1492 1494 1497 1499 1502 1504 1508 1511 1514 1517 1520 1524 1527 1531 1536 1539 1543 1547 1550 1553 1555 1557 1560 1562 1564 1566 1568 1569 1570 1572 1572 1573 1574 1575 1576 1577 1578
1492 1491 1489 1487 1486 1486 1485 1484 1485 1485 1488 1490 1491 1493 1496 1498 1501 1503 1506 1509 1511 1514 1518 1521 1524 1529 1534 1538 1541 1545 1549 1551 1555 1557 1559 1561 1564 1566 1567 1568 1570 1571 1572 1573 1574 1575 1575 1577 1578
1493 1489 1484 1482 1483 1483 1484 1481 1481 1484 1486 1488 1490 1492 1494 1497 1499 1501 1503 1506 1509 1512 1515 1518 1522 1527 1532 1536 1540 1544 1547 1551 1554 1556 1558 1561 1563 1565 1567 1568 1569 1571 1571 1572 1573 1574 1575 1576 1577
1488 1485 1483 1478 1481 1482 1484 1479 1478 1483 1484 1486 1488 1490 1493 1495 1497 1500 1502 1504 1507 1510 1512 1515 1520 1525 1530 1534 1538 1542 1547 1550 1552 1555 1558 1560 1562 1564 1566 1568 1569 1569 1570 1572 1572 1574 1575 1576 1577
1484 1484 1481 1478 1478 1479 1479 1477 1477 1481 1482 1483 1486 1489 1491 1493 1496 1498 1500 1502 1504 1507 1510 1513 1517 1522 1528 1533 1537 1541 1545 1548 1551 1554 1557 1559 1561 1563 1565 1567 1568 1569 1570 1571 1572 1573 1574 1575 1576
1483 1481 1481 1480 1475 1477 1476 1474 1474 1479 1480 1481 1484 1487 1490 1492 1494 1496 1498 1500 1502 1505 1507 1511 1515 1520 1525 1530 1535 1539 1543 1546 1550 1553 1555 1558 1560 1562 1564 1565 1566 1568 1569 1570 1571 1572 1573 1574 1575
1482 1484 1483 1478 1475 1476 1474 1472 1472 1476 1478 1479 1481 1484 1487 1490 1492 1494 1496 1498 1500 1502 1505 1508 1512 1517 1522 1527 1532 1536 1540 1544 1548 1551 1554 1556 1559 1560 1562 1565 1565 1567 1568 1569 1570 1572 1572 1574 1574
1484 1485 1480 1475 1474 1475 1474 1471 1469 1473 1475 1477 1479 1482 1485 1487 1490 1492 1493 1495 1497 1499 1502 1505 1509 1514 1520 1524 1530 1534 1539 1543 1546 1550 1552 1555 1557 1559 1562 1563 1564 1566 1567 1568 1569 1570 1572 1573 1574
1482 1482 1479 1478 1473 1471 1474 1469 1467 1470 1474 1476 1478 1480 1482 1485 1487 1489 1490 1492 1495 1497 1500 1503 1507 1512 1517 1522 1528 1532 1536 1541 1544 1548 1551 1553 1556 1558 1560 1562 1564 1564 1566 1567 1568 1569 1570 1572 1573
1481 1475 1476 1477 1477 1472 1474 1478 1465 1465 1469 1472 1475 1477 1479 1482 1484 1486 1488 1490 1492 1495 1498 1501 1504 1509 1515 1520 1525 1529 1533 1538 1542 1545 1549 1552 1554 1557 1559 1560 1562 1563 1565 1565 1567 1568 1569 1570 1572
1474 1473 1475 1474 1475 1475 1469 1475 1464 1462 1465 1466 1470 1474 1477 1479 1482 1484 1486 1488 1490 1493 1496 1499 1502 1507 1512 1517 1522 1527 1531 1536 1540 1544 1547 1550 1553 1555 1557 1559 1560 1561 1563 1564 1565 1566 1567 1569 1570
1472 1475 1474 1473 1471 1482 1471 1476 1470 1457 1461 1463 1468 1472 1475 1478 1480 1482 1484 1486 1489 1492 1494 1497 1501 1505 1510 1515 1520 1525 1529 1533 1537 1541 1544 1548 1551 1553 1555 1557 1558 1560 1561 1562 1563 1564 1565 1567 1568
1472 1477 1484 1484 1482 1478 1467 1473 1466 1457 1459 1463 1466 1470 1473 1476 1478 1480 1482 1484 1487 1490 1492 1495 1499 1503 1508 1513 1518 1523 1527 1531 1535 1539 1542 1546 1549 1551 1552 1555 1556 1558 1559 1560 1561 1562 1564 1565 1565
1467 1469 1483 1490 1484 1471 1467 1470 1459 1457 1461 1464 1467 1469 1472 1475 1477 1479 1481 1483 1485 1488 1490 1493 1497 1501 1506 1511 1516 1521 1525 1529 1533 1537 1540 1543 1546 1548 1550 1552 1554 1556 1557 1558 1559 1561 1562 1562 1563
1464 1465 1458 1468 1471 1475 1466 1460 1455 1456 1460 1463 1466 1468 1471 1473 1476 1478 1480 1482 1485 1487 1489 1493 1496 1500 1505 1509 1514 1518 1523 1527 1531 1534 1537 1541 1543 1546 1548 1550 1552 1553 1555 1556 1557 1559 1559 1560 1561
1458 1456 1463 1469 1482 1483 1470 1463 1459 1455 1457 1460 1464 1467 1470 1472 1475 1477 1479 1482 1485 1487 1489 1493 1496 1500 1504 1508 1512 1516 1520 1524 1528 1532 1535 1538 1540 1543 1545 1547 1549 1551 1552 1553 1554 1556 1556 1557 1558
1461 1462 1462 1461 1463 1477 1478 1466 1448 1452 1455 1458 1462 1466 1469 1471 1474 1476 1479 1481 1484 1487 1490 1492 1496 1499 1503 1507 1510 1514 1518 1522 1525 1528 1532 1534 1537 1539 1542 1544 1546 1548 1549 1551 1552 1553 1554 1555 1556
1454 1455 1458 1469 1469 1466 1469 1463 1449 1452 1454 1458 1461 1465 1468 1471 1473 1476 1478 1481 1483 1486 1489 1492 1495 1498 1502 1505 1509 1511 1515 1519 1522 1525 1529 1531 1534 1536 1538 1541 1543 1545 1546 1548 1549 1550 1551 1552 1553